GFSFLT1_prec_cthk_000.txt.gz
RH
36 36 39 40 40 46 54 49 49 52 57 57 58 62 60 61 59 57 55 55 53 52 51 50 50 51 49 50 47 46 47 46
37 38 36 38 42 48 55 54 52 57 61 62 66 64 64 64 64 61 59 57 56 55 55 55 52 50 49 46 45 46 45 49
36 38 39 42 47 53 57 56 58 63 67 67 68 69 68 67 67 67 67 66 64 57 54 50 47 44 42 41 40 40 43 47
39 42 43 46 51 57 61 63 65 66 68 69 70 70 71 70 69 67 66 64 59 54 48 42 39 38 37 37 39 40 40 42
44 48 51 55 58 61 65 66 67 66 66 68 69 69 69 68 67 68 68 61 55 48 41 39 36 37 39 38 40 40 42 40
51 54 58 62 63 63 64 64 65 65 66 69 71 70 69 72 76 71 61 54 46 44 44 41 38 36 36 33 32 35 35 37
55 58 60 59 62 64 65 67 69 71 72 73 74 74 79 74 67 60 52 49 52 50 44 40 38 35 34 32 31 30 31 35
57 60 64 65 66 66 68 75 77 78 85 84 84 81 73 63 54 50 51 53 49 45 37 37 36 35 37 39 42 46 44 42
65 67 67 67 67 69 70 75 82 84 78 72 68 64 58 57 57 56 53 49 47 39 39 41 45 46 50 55 58 59 63 63
61 61 62 64 64 69 73 70 67 65 64 63 61 60 57 56 53 53 54 50 46 43 46 51 53 57 61 60 66 71 77 82
61 65 67 69 70 65 63 63 66 65 64 64 63 60 61 59 57 52 49 49 53 55 55 63 66 66 67 71 77 83 89 91
65 64 64 63 63 65 66 68 69 71 68 68 67 66 58 50 49 51 53 62 61 65 68 66 69 72 83 88 94 97 96 95
67 68 66 68 71 72 75 75 73 70 72 72 63 54 56 53 61 67 68 67 67 62 65 70 78 84 91 95 97 96 94 91
67 69 71 75 80 82 84 82 76 72 67 66 61 60 66 64 60 62 68 65 64 66 72 80 88 94 98 97 95 94 94 92
72 75 76 76 78 78 79 78 78 78 74 65 53 55 55 52 57 61 63 68 74 77 83 88 89 85 87 90 92 92 89 85
72 71 74 78 77 75 76 81 75 74 65 59 50 47 49 54 55 56 60 62 63 67 66 65 65 64 64 61 65 70 75 74
72 73 75 73 75 76 75 76 74 58 54 43 44 47 50 54 58 59 58 60 62 58 53 47 41 40 38 35 35 40 48 53
68 66 70 76 79 78 70 63 53 41 42 42 47 53 55 56 59 61 61 59 51 39 35 36 38 40 38 37 36 37 39 44
71 71 73 72 69 66 56 49 42 43 45 46 53 55 57 61 64 66 61 45 36 36 37 40 45 51 47 46 44 45 49 50

GFSFLT1_prec_cthk_003.txt.gz
RH
51 51 45 49 52 55 62 73 58 58 62 63 65 67 68 71 73 71 70 68 68 65 65 64 63 60 60 59 54 51 49 48
50 44 42 45 49 53 67 74 60 61 66 67 68 68 72 75 76 74 74 72 69 67 66 67 62 59 55 49 46 43 43 42
43 41 41 46 55 63 64 66 63 63 66 70 69 70 74 75 77 75 74 71 71 71 72 61 59 52 48 48 46 46 44 43
43 43 46 50 54 58 61 65 68 68 71 70 71 71 72 75 75 74 75 75 76 71 66 61 54 54 53 51 50 48 47 44
44 48 51 58 60 63 67 69 69 66 68 69 71 75 76 77 79 79 79 80 71 65 62 57 56 53 50 46 45 40 37 35
50 53 58 63 65 67 68 68 67 66 66 71 75 77 83 92 91 83 73 69 63 61 57 56 50 44 44 42 42 43 42 42
54 59 62 65 68 67 67 68 66 68 72 75 80 79 75 70 66 64 63 61 55 53 51 51 49 50 50 46 51 50 46 44
61 67 72 71 68 65 64 67 70 72 77 69 62 61 64 66 65 61 56 52 51 52 54 54 51 52 55 58 59 60 60 57
65 66 66 68 64 64 66 69 70 70 64 63 65 65 65 64 62 60 58 58 53 51 51 50 54 57 57 60 64 60 59 63
62 65 64 63 64 65 63 63 62 64 66 67 70 73 71 68 67 65 62 59 54 57 61 59 55 58 62 65 68 68 67 75
66 66 67 66 65 65 63 64 68 74 79 77 76 78 80 74 68 69 71 68 64 52 54 62 67 64 63 69 70 74 80 86
68 67 65 66 67 68 69 73 75 75 77 81 79 77 75 77 76 75 65 57 53 52 47 50 57 62 68 75 80 87 92 94
66 67 69 71 70 72 73 73 76 79 83 83 81 79 76 69 71 60 54 47 45 46 50 58 67 78 84 92 92 90 93 95
70 71 72 72 71 69 71 75 78 79 78 76 79 73 62 53 43 40 43 48 51 54 58 67 73 83 88 85 85 87 89 90
73 72 72 72 71 73 73 74 75 72 72 66 57 48 42 39 42 46 51 51 54 58 62 65 67 65 59 60 55 50 49 60
72 70 67 65 66 70 73 78 70 66 61 54 47 38 39 41 46 48 50 53 58 59 59 60 54 51 51 44 39 35 35 40
73 70 70 70 66 66 72 71 67 63 59 52 45 44 45 49 50 50 54 57 59 60 54 52 51 49 50 42 42 42 42 41
73 71 65 64 58 57 60 67 65 59 59 57 56 55 56 56 57 57 63 70 64 54 53 51 53 56 57 50 48 49 50 49
65 62 56 51 49 52 60 65 62 64 64 60 63 62 64 62 64 66 72 64 57 54 53 55 54 59 65 61 62 63 64 68

GFSFLT1_prec_cthk_006.txt.gz
RH
52 54 53 60 53 48 53 59 55 67 79 62 64 65 66 73 73 73 67 74 71 68 66 63 67 67 61 56 55 52 42 38
51 57 61 56 56 55 50 55 71 79 75 61 65 67 76 75 74 71 73 75 71 73 71 71 67 65 61 56 50 45 42 41
47 50 53 57 54 55 58 63 64 65 66 68 70 73 70 70 70 73 74 73 81 87 86 75 68 68 62 54 54 49 44 40
46 51 55 56 55 57 59 60 65 69 70 72 71 69 66 65 71 82 77 78 81 76 72 67 60 53 52 47 44 43 42 40
43 46 49 49 53 59 64 65 67 70 72 69 66 65 69 75 74 66 62 61 60 61 59 56 54 51 48 45 46 46 45 42
51 53 54 57 59 62 66 68 71 66 64 64 67 69 70 67 60 56 58 57 59 59 55 56 55 50 48 50 50 49 47 51
53 57 58 60 64 69 73 70 64 62 64 65 64 61 56 59 61 62 60 63 63 61 61 59 56 56 57 59 59 58 56 53
59 64 67 67 67 67 65 62 63 65 66 63 62 63 63 66 68 68 69 65 68 65 65 64 63 61 62 61 57 55 51 47
60 62 63 64 63 59 59 59 59 60 62 64 66 67 69 71 74 76 73 67 68 69 61 54 54 51 50 46 46 49 51 52
60 67 67 66 63 61 57 57 58 63 66 66 65 65 69 75 75 72 72 74 70 63 54 46 47 40 40 44 51 57 57 63
74 74 66 65 65 61 63 64 62 67 66 64 66 70 71 70 73 68 66 56 46 38 39 36 38 41 46 54 57 65 71 77
73 71 65 64 64 63 65 63 64 66 66 67 72 73 70 69 65 51 42 36 27 27 32 36 42 49 55 62 74 79 82 84
62 64 66 65 68 67 66 64 65 66 67 68 69 68 65 58 48 42 35 31 33 40 46 45 48 54 58 66 69 71 71 75
62 62 62 63 62 62 60 60 61 61 64 65 61 59 52 50 44 43 39 39 45 47 47 48 48 49 49 49 50 48 46 45
63 64 62 60 57 53 55 59 59 59 60 63 55 56 47 42 43 40 44 47 47 46 51 55 54 54 52 51 47 44 41 38
68 65 61 58 53 51 50 52 55 58 67 70 55 48 47 44 45 47 50 49 50 55 57 54 54 54 54 50 44 45 49 49
65 60 56 57 52 50 46 48 53 60 59 53 51 67 83 76 79 69 57 58 60 64 60 56 53 53 55 53 51 59 63 66
59 57 58 52 47 42 45 45 41 44 46 55 60 78 86 85 73 63 70 67 69 73 59 58 57 58 60 56 57 67 73 73
59 52 49 50 46 46 40 35 30 33 47 62 71 72 73 86 61 71 76 78 82 61 57 60 61 59 60 62 64 74 79 78

GFSFLT1_prec_cthk_009.txt.gz
RH
53 57 53 51 56 65 67 65 73 72 73 76 70 70 69 70 71 68 65 64 64 69 72 67 65 66 68 64 58 54 51 47
45 49 51 55 67 63 64 62 65 73 76 71 71 76 78 74 74 70 67 67 69 66 62 59 56 50 52 52 50 47 42 43
46 49 56 61 66 69 70 69 64 66 68 73 74 78 77 73 70 66 68 67 68 62 60 56 50 48 48 45 43 41 39 39
44 48 54 63 66 66 65 63 61 64 69 73 78 76 66 62 65 70 67 63 58 56 55 53 53 52 49 49 50 48 44 46
43 47 51 52 52 53 55 61 65 67 71 74 71 63 64 66 66 62 59 57 58 58 59 60 59 54 55 52 49 48 51 50
42 42 44 47 52 55 58 61 64 69 68 64 60 63 59 55 54 56 60 61 63 64 64 63 61 58 55 53 48 47 46 47
48 48 50 52 56 60 62 64 64 59 57 57 54 52 51 52 55 56 57 60 65 66 67 66 63 58 57 54 51 47 51 52
53 57 58 57 58 59 59 59 56 56 55 56 58 60 60 60 60 59 59 64 65 63 58 54 51 47 42 39 42 47 47 46
59 63 66 69 69 65 60 60 59 56 59 59 56 57 63 67 58 72 68 66 63 56 48 45 42 36 34 36 40 46 48 52
61 62 66 70 71 70 64 61 61 62 61 61 63 68 70 68 74 75 63 61 58 50 44 30 29 29 31 34 40 43 50 56
69 67 68 68 66 63 62 61 59 61 60 63 65 66 71 64 64 61 55 51 45 37 29 29 30 34 40 46 50 51 55 65
72 70 65 62 63 60 57 58 56 54 54 53 50 49 48 52 50 43 39 34 32 31 32 34 39 44 43 42 42 42 43 45
69 65 64 63 61 59 55 51 49 44 39 38 42 47 56 54 51 45 39 42 40 43 37 40 40 46 47 46 46 49 47 46
61 63 60 58 57 55 50 48 42 40 44 46 50 53 57 64 62 54 67 73 72 66 50 44 47 50 48 49 50 48 47 48
66 66 61 57 55 53 47 39 42 43 40 43 43 43 57 70 61 76 84 94 80 61 60 47 56 52 51 47 45 45 51 54
63 60 56 56 54 50 43 41 39 36 35 33 37 55 58 64 84 83 98 91 70 71 71 55 67 48 48 49 53 54 54 51
60 56 56 53 50 44 46 41 37 35 34 32 30 43 56 66 74 95 87 82 71 81 65 65 48 51 54 60 60 56 54 59
58 55 52 47 45 46 44 41 38 35 32 30 37 46 48 60 69 91 94 90 81 79 66 47 53 59 63 62 55 52 68 78
58 51 46 45 47 43 39 38 35 32 27 27 33 40 43 52 77 91 97 86 79 68 48 47 57 59 56 49 50 72 83 88

GFSFLT1_prec_cthk_012.txt.gz
RH
48 57 52 54 59 72 75 73 79 82 80 68 69 75 72 72 74 76 76 70 72 74 72 68 64 56 53 51 44 40 37 33
51 53 55 64 71 77 77 83 89 80 69 70 73 73 77 78 83 83 78 79 72 71 71 61 55 53 50 48 46 44 41 40
57 63 71 81 79 78 80 80 76 73 71 74 77 78 78 80 86 84 72 70 70 65 59 59 55 54 55 55 53 48 48 45
63 64 65 63 64 63 64 64 66 70 74 77 79 79 82 78 75 71 70 64 61 57 55 54 55 56 55 54 53 51 46 45
60 58 55 52 52 54 56 58 63 66 69 72 72 72 67 62 59 56 55 55 51 51 53 54 55 58 57 52 46 46 45 45
59 52 51 50 52 53 56 60 64 67 65 63 61 58 55 54 54 54 54 59 62 58 60 63 63 52 44 42 45 45 46 46
51 52 52 54 56 57 61 62 59 58 58 57 57 55 53 53 54 58 62 63 66 62 78 75 61 50 46 45 39 42 42 40
61 58 56 55 55 59 63 65 64 63 62 58 56 55 55 57 59 62 67 77 78 53 56 58 52 43 30 28 28 29 34 40
68 65 64 62 62 63 66 66 63 59 57 57 57 60 64 62 63 57 67 59 55 46 53 43 30 26 26 25 26 30 35 42
65 71 71 71 69 65 63 63 62 59 60 60 60 57 52 51 41 40 39 45 47 55 48 31 28 28 31 37 39 37 33 40
73 74 74 68 66 65 64 64 62 62 59 50 42 35 33 37 37 44 50 52 54 58 49 44 46 50 54 52 51 41 36 39
80 77 73 68 68 65 62 62 58 55 48 40 34 36 39 40 40 47 59 57 59 64 71 70 66 68 61 50 48 39 41 44
81 77 72 70 66 63 64 60 53 47 40 36 39 44 45 44 48 49 55 72 82 78 87 80 72 66 64 56 43 47 43 43
76 70 68 65 60 56 55 53 48 38 33 32 34 35 35 36 45 59 68 75 81 88 74 81 75 72 74 57 45 42 45 49
71 68 65 61 58 55 53 45 38 37 35 35 36 35 32 36 46 56 65 71 73 72 84 82 79 80 63 51 49 48 49 51
71 68 63 61 56 51 42 39 39 39 37 37 34 28 26 32 36 39 47 57 65 79 90 90 80 61 55 55 51 48 49 44
70 67 64 58 50 43 41 41 40 38 36 33 28 27 29 31 30 37 49 68 82 94 92 80 62 56 57 53 48 45 42 45
70 66 59 51 46 45 45 40 39 39 33 29 25 29 33 34 35 44 58 80 90 86 79 76 56 54 53 49 46 44 43 61
67 59 53 48 48 47 48 41 41 33 28 25 29 32 38 37 43 51 56 85 82 81 78 62 54 52 47 44 44 40 55 67

GFSFLT1_prec_cthk_015.txt.gz
RH
42 50 59 63 66 81 88 90 93 92 87 84 83 76 77 78 77 77 79 77 75 77 71 62 56 51 46 42 40 39 39 39
50 51 54 62 71 80 89 82 83 77 70 76 82 80 83 81 76 78 87 83 79 68 60 56 54 52 48 46 43 41 41 41
59 64 71 77 83 82 71 75 76 78 78 81 82 82 77 74 78 79 76 70 64 57 58 56 51 48 48 47 48 46 45 44
68 71 72 67 67 67 65 63 67 69 71 71 70 70 71 71 69 64 58 53 53 56 55 54 54 56 57 51 51 55 48 44
69 62 60 58 58 56 57 57 56 59 61 63 65 65 66 64 62 59 57 56 56 54 54 56 68 67 64 57 53 43 39 39
62 62 60 58 57 58 59 62 64 67 66 66 65 64 62 59 57 58 56 58 60 58 54 69 61 55 55 51 36 32 33 33
61 57 59 61 61 57 56 60 65 69 68 65 62 59 58 59 59 56 56 62 53 55 47 51 49 43 45 35 28 27 24 24
65 70 75 65 62 64 63 63 66 63 61 58 59 59 58 59 54 50 45 40 43 39 41 44 49 43 35 34 35 36 33 35
78 68 67 68 67 70 65 63 58 55 56 58 57 53 49 44 39 33 34 35 37 44 50 57 54 53 50 49 49 47 48 49
60 65 71 72 71 70 63 59 57 56 56 56 50 45 41 38 36 35 35 37 42 59 68 66 66 66 68 63 59 56 61 51
63 70 79 80 78 71 65 65 64 62 55 48 44 41 37 36 39 37 39 41 49 51 53 64 75 77 74 72 69 64 62 52
70 73 78 81 77 74 70 66 63 56 51 43 37 33 36 34 34 35 42 52 62 65 65 67 74 79 78 78 69 68 52 44
70 76 78 80 79 70 72 66 60 55 46 42 39 36 34 32 30 32 42 44 43 47 56 61 67 74 73 75 75 62 48 46
71 74 77 75 72 74 68 65 55 48 44 42 40 36 30 26 25 25 26 28 31 45 53 55 60 72 81 77 61 50 53 53
68 69 72 69 76 72 63 54 50 45 43 41 36 30 27 28 31 30 27 32 45 50 59 70 79 84 78 65 51 54 54 54
65 65 73 77 73 65 58 52 46 46 41 37 32 28 28 30 31 30 28 36 51 66 65 76 81 77 74 53 54 53 51 47
69 74 73 71 66 59 53 51 48 44 41 36 30 30 32 34 34 28 33 40 50 55 75 78 77 79 65 52 49 46 45 43
70 68 65 64 60 57 54 49 45 44 39 34 32 37 38 36 34 31 36 43 54 70 73 73 77 75 50 43 44 44 42 40
65 66 66 64 57 54 49 48 48 41 36 34 38 38 34 35 35 38 45 52 60 69 78 84 81 55 43 41 41 39 39 39